FW9784 Weather Reports


Display with metric or nautical units.
time (UTC)temp
F
wind
direction
speed
MPH
gust
MPH
rain 1hr
in
rain 24hr
in
rain mn
in
humidity
%
barometer
mb
20260903124618 67 102 2.0 4.0 0.00 0.00 0.00 89 1013.5
20260903124122 67 102 2.0 4.0 0.00 0.00 0.00 90 1013.5
20260903123619 67 102 1.0 4.0 0.00 0.00 0.00 90 1013.5
20260903123116 67 117 1.0 3.0 0.00 0.00 0.00 89 1013.5
20260903122616 67 151 0.0 2.0 0.00 0.00 0.00 89 1013.5
20260903122116 67 131 0.0 2.0 0.00 0.00 0.00 89 1013.5
20260903121754 67 164 0.0 3.0 0.00 0.00 0.00 89 1013.5
20260903121750 67 156 1.0 5.0 0.00 0.00 0.00 90 1013.6
20260903121648 67 175 0.0 2.0 0.00 0.00 0.00 89 1013.5
20260903120407 67 126 1.0 6.0 0.00 0.00 0.00 91 1013.6
20260903120357 67 116 1.0 3.0 0.00 0.00 0.00 91 1013.7
20260903120203 67 172 1.0 5.0 0.00 0.00 0.00 90 1013.6
20260903115813 67 185 1.0 6.0 0.00 0.00 0.00 90 1013.5
20260903115553 67 124 1.0 6.0 0.00 0.00 0.00 91 1013.7
20260903115232 67 182 1.0 6.0 0.00 0.00 0.00 91 1013.7
20260903113613 67 113 1.0 4.0 0.00 0.00 0.00 91 1013.7
20260903112608 67 175 1.0 3.0 0.00 0.00 0.00 91 1013.6
20260903112358 67 74 1.0 3.0 0.00 0.00 0.00 90 1013.7
20260903112139 67 74 1.0 3.0 0.00 0.00 0.00 90 1013.7
20260903111605 67 112 1.0 3.0 0.00 0.00 0.00 91 1013.7
20260903111116 66 112 0.0 3.0 0.00 0.00 0.00 91 1013.7
20260903110603 66 112 1.0 4.0 0.00 0.00 0.00 91 1013.7
20260903110118 66 113 1.0 4.0 0.00 0.00 0.00 91 1013.7
20260903105740 65 203 0.0 1.0 0.00 0.00 0.00 90 1013.7
20260903105636 66 203 0.0 2.0 0.00 0.00 0.00 90 1013.8
20260903105137 66 203 0.0 2.0 0.00 0.00 0.00 90 1013.7
20260903104109 65 203 0.0 0.0 0.00 0.00 0.00 89 1013.8
20260903103758 66 203 0.0 2.0 0.00 0.00 0.00 89 1013.8
20260903103618 65 203 0.0 0.0 0.00 0.00 0.00 89 1013.8
20260903103244 65 203 0.0 0.0 0.00 0.00 0.00 89 1013.8
20260903102646 65 203 0.0 0.0 0.00 0.00 0.00 88 1013.8
20260903102000 66 203 0.0 2.0 0.00 0.00 0.00 89 1013.9
20260903101055 65 203 0.0 0.0 0.00 0.00 0.00 88 1013.9
20260903100942 65 203 0.0 0.0 0.00 0.00 0.00 88 1013.9
20260903100753 65 203 0.0 0.0 0.00 0.00 0.00 88 1013.9
20260903095553 65 203 0.0 0.0 0.00 0.00 0.00 88 1013.9
20260903095051 65 203 0.0 0.0 0.00 0.00 0.00 88 1013.9
20260903094819 65 203 0.0 0.0 0.00 0.00 0.00 88 1013.9
20260903094052 65 203 0.0 0.0 0.00 0.00 0.00 88 1013.9
20260903093549 65 203 0.0 0.0 0.00 0.00 0.00 88 1014.0
20260903093247 67 203 0.0 0.0 0.00 0.00 0.00 86 1014.5
20260903093205 66 203 0.0 0.0 0.00 0.00 0.00 87 1014.5
20260903093155 66 203 0.0 0.0 0.00 0.00 0.00 86 1014.5
20260903093143 66 203 0.0 0.0 0.00 0.00 0.00 87 1014.6
20260903093130 66 203 0.0 0.0 0.00 0.00 0.00 86 1014.5
20260903093111 65 203 0.0 0.0 0.00 0.00 0.00 88 1014.0
20260903092736 65 203 0.0 0.0 0.00 0.00 0.00 87 1014.1
20260903092413 65 203 0.0 0.0 0.00 0.00 0.00 87 1014.2
20260903092405 65 203 0.0 0.0 0.00 0.00 0.00 87 1014.2
20260903092312 66 203 0.0 0.0 0.00 0.00 0.00 87 1014.4
20260903092134 65 203 0.0 0.0 0.00 0.00 0.00 87 1014.1
20260903091615 65 203 0.0 0.0 0.00 0.00 0.00 87 1014.1
20260903091257 65 203 0.0 0.0 0.00 0.00 0.00 88 1014.2
20260903085638 66 203 0.0 0.0 0.00 0.00 0.00 86 1014.5
20260903085606 66 203 0.0 0.0 0.00 0.00 0.00 86 1014.6
20260903085547 65 203 0.0 0.0 0.00 0.00 0.00 87 1014.2
20260903085536 66 203 0.0 0.0 0.00 0.00 0.00 86 1014.6
20260903085241 65 203 0.0 0.0 0.00 0.00 0.00 87 1014.3
20260903084937 66 203 0.0 0.0 0.00 0.00 0.00 87 1014.6
20260903084716 65 203 0.0 0.0 0.00 0.00 0.00 87 1014.3
20260903084143 65 203 0.0 0.0 0.00 0.00 0.00 87 1014.3
20260903083846 66 203 0.0 0.0 0.00 0.00 0.00 87 1014.3
20260903082555 66 203 0.0 0.0 0.00 0.00 0.00 86 1014.5
20260903082020 66 203 0.0 0.0 0.00 0.00 0.00 86 1014.5
20260903081706 66 203 0.0 0.0 0.00 0.00 0.00 86 1014.5
20260903081424 66 203 0.0 0.0 0.00 0.00 0.00 86 1014.6
20260903080704 66 203 0.0 0.0 0.00 0.00 0.00 86 1014.6
20260903074757 66 203 0.0 0.0 0.00 0.00 0.00 87 1014.6
20260903073851 67 203 0.0 0.0 0.00 0.00 0.00 86 1014.5
20260903073618 66 203 0.0 0.0 0.00 0.00 0.00 87 1014.6
20260903072639 67 203 0.0 0.0 0.00 0.00 0.00 86 1014.5
20260903071026 67 203 0.0 0.0 0.00 0.00 0.00 86 1014.5
20260903070522 67 203 0.0 0.0 0.00 0.00 0.00 86 1014.4
20260903070451 71 0 3.0 7.0 0.00 0.00 0.00 75 1013.8
20260903070417 71 184 2.0 5.0 0.00 0.00 0.00 81 1013.9
20260903070117 67 203 0.0 0.0 0.00 0.00 0.00 86 1014.4
20260903065720 67 203 0.0 0.0 0.00 0.00 0.00 86 1014.4
20260903065419 67 203 0.0 0.0 0.00 0.00 0.00 86 1014.5
20260903065139 67 203 0.0 0.0 0.00 0.00 0.00 86 1014.4
20260903064851 67 203 0.0 0.0 0.00 0.00 0.00 86 1014.4
20260903064606 68 203 0.0 0.0 0.00 0.00 0.00 86 1014.4
20260903064326 68 203 0.0 0.0 0.00 0.00 0.00 86 1014.3
20260903064113 68 203 0.0 0.0 0.00 0.00 0.00 86 1014.4
20260903062106 71 184 2.0 5.0 0.00 0.00 0.00 81 1013.9
20260903062056 71 189 2.0 7.0 0.00 0.00 0.00 81 1013.8
20260903062027 68 203 0.0 1.0 0.00 0.00 0.00 85 1014.3
20260903062018 68 203 0.0 0.0 0.00 0.00 0.00 86 1014.5
20260903061923 69 203 0.0 0.0 0.00 0.00 0.00 83 1014.2
20260903061914 71 203 0.0 1.0 0.00 0.00 0.00 81 1014.1
20260903061906 71 203 0.0 1.0 0.00 0.00 0.00 81 1014.1
20260903061813 71 203 1.0 4.0 0.00 0.00 0.00 80 1014.0
20260903061716 71 179 1.0 3.0 0.00 0.00 0.00 81 1013.8
20260903061520 68 203 0.0 0.0 0.00 0.00 0.00 86 1014.4
20260903061515 71 172 2.0 7.0 0.00 0.00 0.00 80 1013.8
20260903061442 71 210 2.0 6.0 0.00 0.00 0.00 80 1013.7
20260903061334 71 207 3.0 6.0 0.00 0.00 0.00 80 1013.7
20260903061312 71 0 3.0 7.0 0.00 0.00 0.00 79 1013.8
20260903061300 71 207 3.0 8.0 0.00 0.00 0.00 79 1013.8
20260903061116 71 0 3.0 8.0 0.00 0.00 0.00 78 1013.7
20260903061109 68 203 0.0 0.0 0.00 0.00 0.00 85 1014.3
20260903061040 68 203 0.0 1.0 0.00 0.00 0.00 85 1014.3
20260903061020 68 203 0.0 0.0 0.00 0.00 0.00 86 1014.4
20260903060935 68 203 0.0 1.0 0.00 0.00 0.00 85 1014.3
20260903060649 68 203 0.0 0.0 0.00 0.00 0.00 86 1014.3
20260903060106 70 203 0.0 0.0 0.00 0.00 0.00 83 1014.2
20260903060059 70 203 0.0 0.0 0.00 0.00 0.00 82 1014.1
20260903060050 71 203 0.0 0.0 0.00 0.00 0.00 81 1014.1
20260903060026 68 203 0.0 0.0 0.00 0.00 0.00 86 1014.4
20260903055541 68 203 0.0 0.0 0.00 0.00 0.00 85 1014.3
20260903053037 68 203 0.0 1.0 0.00 0.00 0.00 85 1014.3
20260903052609 68 203 0.0 1.0 0.00 0.00 0.00 84 1014.3
20260903052211 69 203 0.0 2.0 0.00 0.00 0.00 84 1014.3
20260903051837 71 200 1.0 5.0 0.00 0.00 0.00 80 1013.8
20260903051536 69 203 0.0 2.0 0.00 0.00 0.00 84 1014.3
20260903051200 69 203 0.0 2.0 0.00 0.00 0.00 84 1014.2
20260903050511 69 203 0.0 0.0 0.00 0.00 0.00 84 1014.2
20260903050112 69 203 0.0 0.0 0.00 0.00 0.00 83 1014.2
20260903045949 71 189 2.0 7.0 0.00 0.00 0.00 81 1013.8
20260903045856 71 262 3.0 7.0 0.00 0.00 0.00 81 1013.8
20260903045530 69 203 0.0 0.0 0.00 0.00 0.00 83 1014.2
20260903045118 69 203 0.0 0.0 0.00 0.00 0.00 83 1014.2
20260903044817 69 203 0.0 0.0 0.00 0.00 0.00 83 1014.3
20260903043608 70 203 0.0 0.0 0.00 0.00 0.00 82 1014.2
20260903043015 70 203 0.0 0.0 0.00 0.00 0.00 82 1014.1
20260903042613 70 203 0.0 0.0 0.00 0.00 0.00 81 1014.1
20260903041928 71 0 3.0 7.0 0.00 0.00 0.00 79 1013.8
20260903040821 71 203 0.0 1.0 0.00 0.00 0.00 80 1014.1
20260903040217 71 203 1.0 4.0 0.00 0.00 0.00 80 1013.9
20260903034501 71 184 2.0 5.0 0.00 0.00 0.00 81 1013.9
20260903032440 71 0 3.0 7.0 0.00 0.00 0.00 79 1013.8
20260903025939 71 0 3.0 9.0 0.00 0.00 0.00 77 1013.8
20260903025931 71 0 3.0 7.0 0.00 0.00 0.00 75 1013.8
20260903025851 71 0 3.0 9.0 0.00 0.00 0.00 78 1013.7
20260903025812 72 202 4.0 9.0 0.00 0.00 0.00 73 1013.8
20260903024517 71 206 3.0 7.0 0.00 0.00 0.00 76 1013.8
20260903024338 71 235 3.0 6.0 0.00 0.00 0.00 76 1013.8
20260903023635 71 0 3.0 8.0 0.00 0.00 0.00 76 1013.9
20260903023242 71 0 3.0 8.0 0.00 0.00 0.00 76 1013.8
20260903022905 71 257 3.0 9.0 0.00 0.00 0.00 75 1013.8
20260903022745 72 199 4.0 9.0 0.00 0.00 0.00 75 1013.8
20260903022558 71 0 3.0 7.0 0.00 0.00 0.00 75 1013.8
20260903022233 71 257 3.0 9.0 0.00 0.00 0.00 75 1013.8
20260903021618 72 0 3.0 9.0 0.00 0.00 0.00 75 1013.8
20260903020128 72 0 4.0 11.0 0.00 0.00 0.00 73 1013.9
20260903020015 72 228 4.0 8.0 0.00 0.00 0.00 73 1013.8
20260903015847 72 221 4.0 11.0 0.00 0.00 0.00 73 1013.9
20260903015838 72 0 4.0 8.0 0.00 0.00 0.00 73 1013.8
20260903015719 72 228 4.0 9.0 0.00 0.00 0.00 73 1013.9
20260903014024 72 221 4.0 11.0 0.00 0.00 0.00 73 1013.9
20260903013502 72 200 4.0 10.0 0.00 0.00 0.00 74 1013.9
20260903012952 72 0 4.0 12.0 0.00 0.00 0.00 74 1014.0
20260903012503 72 0 4.0 12.0 0.00 0.00 0.00 74 1014.0
20260903011947 73 184 4.0 10.0 0.00 0.00 0.00 75 1014.0
20260903011459 73 229 4.0 10.0 0.00 0.00 0.00 75 1014.1
20260903010947 73 249 4.0 10.0 0.00 0.00 0.00 75 1014.0
20260903010449 73 0 4.0 10.0 0.00 0.00 0.00 74 1013.9
20260903005953 74 0 3.0 10.0 0.00 0.00 0.00 75 1014.0
20260903005455 74 0 3.0 10.0 0.00 0.00 0.00 76 1014.0
20260903004945 74 0 5.0 13.0 0.00 0.00 0.00 76 1014.0
20260903004456 74 0 5.0 13.0 0.00 0.00 0.00 75 1014.0
20260903003944 74 0 4.0 9.0 0.00 0.00 0.00 76 1014.0
20260903003444 74 0 4.0 11.0 0.00 0.00 0.00 76 1014.0
20260903002944 74 0 4.0 11.0 0.00 0.00 0.00 75 1014.0
20260903002507 74 0 5.0 11.0 0.00 0.00 0.00 75 1014.0
20260903002010 74 194 5.0 12.0 0.00 0.00 0.00 75 1014.0
20260903001514 75 223 4.0 12.0 0.00 0.00 0.00 75 1014.1
20260903000950 75 0 5.0 13.0 0.00 0.00 0.00 75 1014.2
20260903000650 75 0 5.0 13.0 0.00 0.00 0.00 73 1014.1
20260903000318 76 292 5.0 11.0 0.00 0.00 0.00 73 1014.4
20260903000257 76 183 5.0 11.0 0.00 0.00 0.00 74 1014.2
20260903000248 76 305 4.0 11.0 0.00 0.00 0.00 74 1014.3
20260903000107 75 0 6.0 16.0 0.00 0.00 0.00 74 1014.2
20260902235537 75 0 5.0 16.0 0.00 0.00 0.00 74 1014.2
20260902233520 76 278 5.0 11.0 0.00 0.00 0.00 72 1014.4
20260902233046 76 211 5.0 13.0 0.00 0.00 0.00 71 1014.5
20260902232955 76 231 5.0 10.0 0.00 0.00 0.00 73 1014.4
20260902232508 77 0 5.0 12.0 0.00 0.00 0.00 67 1014.9
20260902232457 77 207 5.0 11.0 0.00 0.00 0.00 69 1014.6
20260902232445 77 200 4.0 10.0 0.00 0.00 0.00 68 1014.6
20260902232437 76 254 5.0 10.0 0.00 0.00 0.00 73 1014.4
20260902232320 76 211 5.0 13.0 0.00 0.00 0.00 71 1014.5
20260902232306 77 213 5.0 12.0 0.00 0.00 0.00 70 1014.5
20260902232054 76 180 5.0 13.0 0.00 0.00 0.00 72 1014.5
20260902231000 76 180 5.0 13.0 0.00 0.00 0.00 71 1014.6
20260902230441 77 259 4.0 11.0 0.00 0.00 0.00 72 1014.4
20260902225648 77 272 5.0 12.0 0.00 0.00 0.00 70 1014.5
20260902225346 77 207 5.0 11.0 0.00 0.00 0.00 69 1014.6
20260902224128 78 296 4.0 10.0 0.00 0.00 0.00 69 1014.7
20260902223618 78 0 4.0 11.0 0.00 0.00 0.00 67 1014.7
20260902223202 77 0 5.0 12.0 0.00 0.00 0.00 67 1014.9
20260902223134 78 207 4.0 10.0 0.00 0.00 0.00 66 1015.1
20260902223113 78 223 4.0 11.0 0.00 0.00 0.00 65 1015.2
20260902223039 78 0 5.0 11.0 0.00 0.00 0.00 68 1015.0
20260902223013 77 0 5.0 11.0 0.00 0.00 0.00 66 1014.8
20260902222622 78 0 5.0 11.0 0.00 0.00 0.00 65 1014.8
20260902221518 77 223 5.0 12.0 0.00 0.00 0.00 66 1014.9
20260902220648 77 0 5.0 12.0 0.00 0.00 0.00 67 1014.9
20260902220228 78 229 4.0 11.0 0.00 0.00 0.00 66 1015.2
20260902220044 78 219 5.0 12.0 0.00 0.00 0.00 68 1015.0
20260902215538 78 313 5.0 12.0 0.00 0.00 0.00 68 1015.0
20260902213421 78 214 4.0 9.0 0.00 0.00 0.00 66 1015.2
20260902212921 78 0 4.0 9.0 0.00 0.00 0.00 65 1015.3
20260902212420 79 0 4.0 9.0 0.00 0.00 0.00 65 1015.4
20260902211923 78 192 4.0 9.0 0.00 0.00 0.00 67 1015.4
20260902211420 78 0 4.0 10.0 0.00 0.00 0.00 67 1015.4
20260902210940 78 217 4.0 10.0 0.00 0.00 0.00 66 1015.5
20260902210426 78 194 4.0 10.0 0.00 0.00 0.00 65 1015.6
20260902205918 77 256 5.0 11.0 0.00 0.00 0.00 65 1015.6
20260902205419 78 0 4.0 11.0 0.00 0.00 0.00 65 1015.6
20260902205149 78 263 4.0 9.0 0.00 0.00 0.00 66 1015.6
20260902204413 77 0 4.0 9.0 0.00 0.00 0.00 67 1015.6
20260902203931 77 0 4.0 10.0 0.00 0.00 0.00 67 1015.6
20260902203412 77 306 4.0 10.0 0.00 0.00 0.00 68 1015.6
20260902202919 77 0 4.0 9.0 0.00 0.00 0.00 68 1015.6
20260902202639 76 217 4.0 10.0 0.00 0.00 0.00 69 1015.8
20260902202513 77 0 5.0 10.0 0.00 0.00 0.00 68 1015.7
20260902201936 76 188 4.0 10.0 0.00 0.00 0.00 69 1015.7
20260902200914 76 254 5.0 11.0 0.00 0.00 0.00 69 1015.7
20260902200410 76 211 5.0 11.0 0.00 0.00 0.00 69 1015.8
20260902195914 76 265 5.0 11.0 0.00 0.00 0.00 70 1015.9
20260902195524 76 0 4.0 11.0 0.00 0.00 0.00 70 1015.9
20260902195427 76 230 5.0 11.0 0.00 0.00 0.00 70 1015.9
20260902194402 76 220 4.0 10.0 0.00 0.00 0.00 70 1015.9
20260902193916 76 207 5.0 10.0 0.00 0.00 0.00 71 1016.0
20260902193405 76 212 5.0 10.0 0.00 0.00 0.00 70 1016.0
20260902192901 76 0 5.0 10.0 0.00 0.00 0.00 71 1016.0
20260902192750 76 0 4.0 10.0 0.00 0.00 0.00 71 1016.2
20260902192523 76 254 4.0 9.0 0.00 0.00 0.00 72 1016.3
20260902192128 76 226 4.0 11.0 0.00 0.00 0.00 72 1016.2
20260902191824 75 190 4.0 11.0 0.00 0.00 0.00 72 1016.3
20260902191537 75 253 4.0 11.0 0.00 0.00 0.00 72 1016.2
20260902191311 75 0 4.0 9.0 0.00 0.00 0.00 72 1016.3
20260902185401 75 0 4.0 8.0 0.00 0.00 0.00 73 1016.4
20260902185257 76 178 4.0 10.0 0.00 0.00 0.00 73 1016.3
20260902185048 76 178 4.0 10.0 0.00 0.00 0.00 73 1016.3
20260902185018 76 202 4.0 9.0 0.00 0.00 0.00 72 1016.3
20260902184939 75 275 4.0 11.0 0.00 0.00 0.00 73 1016.3
20260902184404 75 0 5.0 11.0 0.00 0.00 0.00 73 1016.4
20260902184355 75 0 3.0 10.0 0.00 0.00 0.00 72 1016.4
20260902184350 76 184 3.0 7.0 0.00 0.00 0.00 72 1016.3
20260902184033 76 232 4.0 10.0 0.00 0.00 0.00 72 1016.3
20260902183032 76 178 4.0 10.0 0.00 0.00 0.00 73 1016.3
20260902181406 75 227 3.0 8.0 0.00 0.00 0.00 73 1016.2
20260902181358 76 209 3.0 7.0 0.00 0.00 0.00 72 1016.3
20260902181029 75 0 3.0 7.0 0.00 0.00 0.00 72 1016.2
20260902180123 75 271 4.0 8.0 0.00 0.00 0.00 72 1016.2
20260902175519 75 209 3.0 7.0 0.00 0.00 0.00 73 1016.1
20260902175418 75 163 3.0 6.0 0.00 0.00 0.00 73 1016.2
20260902174347 75 248 3.0 9.0 0.00 0.00 0.00 73 1016.2
20260902173851 75 295 3.0 9.0 0.00 0.00 0.00 72 1016.3
20260902173344 75 261 3.0 7.0 0.00 0.00 0.00 72 1016.2
20260902172849 75 202 3.0 7.0 0.00 0.00 0.00 72 1016.3
20260902172537 75 0 1.0 5.0 0.00 0.00 0.00 72 1016.2
20260902172420 75 142 2.0 7.0 0.00 0.00 0.00 72 1016.2
20260902171350 75 217 1.0 5.0 0.00 0.00 0.00 71 1016.1
20260902171259 75 227 2.0 6.0 0.00 0.00 0.00 70 1016.2
20260902170340 75 113 2.0 6.0 0.00 0.00 0.00 70 1016.1
20260902170236 73 106 1.0 4.0 0.00 0.00 0.00 73 1015.9
20260902170045 74 101 2.0 6.0 0.00 0.00 0.00 72 1015.9
20260902165850 74 123 2.0 4.0 0.00 0.00 0.00 71 1016.1
20260902165748 74 134 2.0 5.0 0.00 0.00 0.00 72 1015.9
20260902164945 74 232 2.0 6.0 0.00 0.00 0.00 71 1015.9
20260902164046 74 184 2.0 5.0 0.00 0.00 0.00 72 1016.0
20260902163606 72 83 1.0 4.0 0.00 0.00 0.00 75 1016.1
20260902163447 73 124 0.0 3.0 0.00 0.00 0.00 75 1015.9
20260902163401 74 119 2.0 4.0 0.00 0.00 0.00 72 1016.0
20260902163028 74 86 2.0 4.0 0.00 0.00 0.00 73 1016.0
20260902161650 72 83 0.0 0.0 0.00 0.00 0.00 75 1016.0
20260902161408 72 83 0.0 0.0 0.00 0.00 0.00 75 1016.0
20260902160830 72 83 2.0 4.0 0.00 0.00 0.00 76 1016.1
20260902160114 71 120 2.0 4.0 0.00 0.00 0.00 75 1016.1
20260902155837 71 120 2.0 4.0 0.00 0.00 0.00 75 1016.1
20260902155615 71 196 2.0 4.0 0.00 0.00 0.00 76 1016.0
20260902155300 71 189 1.0 4.0 0.00 0.00 0.00 77 1016.0
20260902154534 71 184 0.0 4.0 0.00 0.00 0.00 77 1016.1
20260902154344 71 103 0.0 2.0 0.00 0.00 0.00 78 1016.0
20260902153317 70 103 0.0 3.0 0.00 0.00 0.00 79 1016.1
20260902152931 70 118 1.0 3.0 0.00 0.00 0.00 80 1016.0
20260902152823 70 118 0.0 3.0 0.00 0.00 0.00 79 1016.0
20260902152019 69 123 1.0 3.0 0.00 0.00 0.00 82 1015.9
20260902151225 68 251 0.0 3.0 0.00 0.00 0.00 84 1015.9
20260902150315 66 251 0.0 0.0 0.00 0.00 0.00 88 1016.0
20260902150307 67 251 0.0 0.0 0.00 0.00 0.00 87 1016.0
20260902145307 65 251 0.0 0.0 0.00 0.00 0.00 89 1016.0
20260902145055 65 251 0.0 0.0 0.00 0.00 0.00 89 1016.1
20260902144314 64 251 0.0 0.0 0.00 0.00 0.00 90 1016.0
20260902143829 64 251 0.0 0.0 0.00 0.00 0.00 91 1015.9
20260902143812 64 251 0.0 0.0 0.00 0.00 0.00 91 1015.9
20260902143803 63 251 0.0 0.0 0.00 0.00 0.00 92 1016.0
20260902142747 62 251 0.0 0.0 0.00 0.00 0.00 92 1015.5
20260902142319 63 251 0.0 0.0 0.00 0.00 0.00 92 1015.9
20260902142016 63 251 0.0 0.0 0.00 0.00 0.00 92 1015.8
20260902141457 63 251 0.0 0.0 0.00 0.00 0.00 93 1015.7
20260902140831 62 251 0.0 0.0 0.00 0.00 0.00 93 1015.6
20260902135801 62 251 0.0 0.0 0.00 0.00 0.00 92 1015.3
20260902135301 61 251 0.0 0.0 0.00 0.00 0.00 91 1015.3
20260902134803 61 251 0.0 0.0 0.00 0.00 0.00 91 1015.3
20260902134305 61 251 0.0 0.0 0.00 0.00 0.00 91 1015.3
20260902133804 61 251 0.0 0.0 0.00 0.00 0.00 91 1015.2
20260902133301 61 251 0.0 0.0 0.00 0.00 0.00 91 1015.1
20260902132801 61 251 0.0 0.0 0.00 0.00 0.00 91 1015.1
20260902132301 61 251 0.0 0.0 0.00 0.00 0.00 91 1015.0
20260902131806 61 251 0.0 0.0 0.00 0.00 0.00 91 1015.0
20260902131301 61 251 0.0 0.0 0.00 0.00 0.00 91 1015.1
20260902130801 61 251 0.0 0.0 0.00 0.00 0.00 91 1015.0
20260902130301 61 251 0.0 0.0 0.00 0.00 0.00 91 1015.0
20260902125801 61 251 0.0 0.0 0.00 0.00 0.00 91 1015.0
20260902125301 62 251 0.0 0.0 0.00 0.00 0.00 91 1015.1